STARLINK-1925 (46756 NORAD) Tracking and Keplerian Element Data

This shows tracking and keplerian element data for the satellite.

Feedback or suggestion? Click here.




ElementValue
Catalog46756
NameSTARLINK-1925
Epoch Orbit180
Epoch Day20.91667824
Epoch Year2021
RAAN98.3044
Inclination53.0592
Eccentricity0.0001423
Argument of Perigee72.9585
Mean Anonmoly19.6
Mean Motion15.06390504
Decay Rate7.489E-05
L11 46756U 20074T 21020.91667824 .00007489 00000-0 52127-3 0 9997
L22 46756 53.0592 98.3044 0001423 72.9585 19.6000 15.06390504 1806

Live tracking and technical data element details for STARLINK-1925 (NORAD 46756). STARLINK-1925 can be tracked NOW for your location showing map with azimuth and elevation plus other details from your city location.

Track the satellite on the map from your city or location and see movement details for azimuth, elevation, latitude, longitude, range, height, and movement on the map or in text.







IsCatalogInMostPopularTable: catalog: 46756, numindb: 33
Update: records affected: 1



GetName: 46756 STARLINK-1925

Hit Count: updated at: Fri, 22 Jan 2021 18:10:16 GMT